Location: Tucson
(32.2217°N, 110.9265°W)
Time: 01:25:32
(UTC-07:00)

Tiros 1 - Pass Details

Date: 27 October 2021
Orbit: 630 x 663 km, 48.4° (Epoch: 07 December)

Event Time Altitude Azimuth Distance (km) Brightness Sun altitude
Rises 13:10:28 0° 317° (NW) 2,970 10.4 42.3°
Reaches altitude 10° 13:13:57 10° 343° (NNW) 2,050 9.5 42.0°
Maximum altitude 13:16:24 14° 15° (NNE) 1,795 9.1 41.8°
Drops below altitude 10° 13:18:50 10° 46° (NE) 2,037 9.4 41.6°
Sets 13:22:16 0° 72° (ENE) 2,936 10.2 41.3°
